Simultaneous Nadir Overpasses (SNOs) Predictions

Prediction of SNOs between AQUA and METOP-B Satellite Orbit:

Table of predicted SNOs for the next 14.0 days since TLE Epoch: 11/8/2013
Index Date (AQUA) Time (AQUA) Lat,Lon (AQUA) SZA (AQUA ) Date (METOP-B) Time (METOP-B) Lat,Lon (METOP-B) SZA (METOP-B ) Distance(km) Time Diff (sec)
1 11/10/2013 17:34:56 -73.25, 91.67 89.52 11/10/2013 17:33:47 -73.19, 89.77 89.56 61.05 69
2 11/10/2013 18:24:33 73.73,-101.72 90.98 11/10/2013 18:24:16 73.74,-101.65 90.99 2.25 17
3 11/10/2013 19:13:59 -73.76, 65.86 88.99 11/10/2013 19:14:57 -73.77, 65.76 88.97 3.56 58
4 11/13/2013 13:09:21 -73.52, 157.52 88.49 11/13/2013 13:08:09 -73.44, 156.71 88.56 27.12 72
5 11/13/2013 13:58:53 73.75, -35.33 91.76 11/13/2013 13:58:43 73.72, -35.29 91.74 2.92 10
6 11/13/2013 14:48:20 -73.82, 132.15 88.16 11/13/2013 14:49:23 -73.82, 132.26 88.17 3.58 63
7 11/16/2013 08:43:42 -73.68,-136.40 87.60 11/16/2013 08:42:30 -73.68,-136.34 87.60 2.08 72
8 11/16/2013 09:33:11 73.76, 31.06 92.49 11/16/2013 09:33:08 73.75, 31.18 92.49 3.61 3
9 11/16/2013 10:22:38 -73.83,-161.45 87.43 11/16/2013 10:23:49 -73.81,-161.36 87.45 3.32 71
10 11/19/2013 04:18:00 -73.69, -69.99 86.92 11/19/2013 04:16:57 -73.66, -69.97 86.94 2.75 63
11 11/19/2013 05:07:28 73.72, 97.58 93.13 11/19/2013 05:07:35 73.73, 97.52 93.14 2.33 7
12 11/19/2013 05:57:00 -74.04, -95.50 86.54 11/19/2013 05:58:11 -74.04, -94.40 86.55 33.74 71
13 11/21/2013 23:52:17 -73.70, -3.58 86.28 11/21/2013 23:51:23 -73.70, -3.50 86.27 2.42 54
14 11/22/2013 00:41:45 73.73, 163.98 93.77 11/22/2013 00:42:01 73.76, 163.98 93.80 3.07 16




NCC Satellite Simultaneous Nadir Overpasses (SNOs) Prediction Service
